GEOEYE 1

Last updated on Sun Jun 21 2026 00:02:51 GMT+0000 (Coordinated Universal Time)

1 33331U 08042A 26171.43092722 .00000322 00000+0 69364-4 0 9991 2 33331 98.1235 245.3211 0005299 61.7686 298.4052 14.64728217950624
UTC large
Height (km)
Speed (km/s)
/
Latitude / Longitude
Inclination (degrees)
Orbital Period (minutes)
Azimuth
Elevation
Range (km)
Doppler Factor

Next 0 passes for location: London (51.5072 / 0.1276)

No passes found over London.
GEOEYE 1